GW4294 Weather Reports


time (UTC)temp
C
wind
direction
speed
KPH
gust
KPH
rain 1hr
cm
rain 24hr
cm
rain mn
cm
humidity
%
barometer
mb
20260502151631 5 0 1.6 9.7 0.00 0.00 0.00 67 1015.0
20260502123103 1 283 3.2 11.3 0.00 0.00 0.00 84 1015.0
20260502121556 1 299 0.0 4.8 0.00 0.00 0.00 88 1015.1
20260502114556 1 296 1.6 11.3 0.00 0.00 0.00 87 1015.0
20260502113054 1 298 3.2 8.0 0.00 0.00 0.00 87 1014.8
20260502111559 1 311 0.0 8.0 0.00 0.00 0.00 88 1014.8
20260502110055 1 304 1.6 8.0 0.00 0.00 0.00 87 1014.4
20260502104552 1 296 3.2 6.4 0.00 0.00 0.00 86 1014.1
20260502103104 1 304 0.0 8.0 0.00 0.00 0.00 86 1014.0
20260502101610 1 302 0.0 6.4 0.00 0.00 0.00 86 1013.9
20260502100132 1 0 3.2 9.7 0.00 0.00 0.00 85 1013.9
20260502090110 1 280 3.2 8.0 0.00 0.00 0.00 83 1013.9
20260502070100 0 238 0.0 1.6 0.00 0.00 0.00 79 1013.9
20260502064606 0 0 0.0 1.6 0.00 0.00 0.00 79 1014.0
20260502063106 0 0 0.0 1.6 0.00 0.00 0.00 78 1013.9
20260502061610 1 0 0.0 3.2 0.00 0.00 0.00 76 1013.9
20260502060056 1 311 0.0 4.8 0.00 0.00 0.00 75 1013.9
20260502054555 1 288 1.6 8.0 0.00 0.00 0.00 74 1014.0
20260502053104 1 279 0.0 3.2 0.00 0.00 0.00 74 1014.0
20260502051557 1 256 0.0 3.2 0.00 0.00 0.00 75 1014.1
20260502050057 1 276 0.0 1.6 0.00 0.00 0.00 75 1014.1
20260502044556 1 0 0.0 3.2 0.00 0.00 0.00 76 1014.1
20260502043100 1 283 0.0 1.6 0.00 0.00 0.00 77 1014.1
20260502041559 1 293 0.0 3.2 0.00 0.00 0.00 78 1014.2
20260502040059 1 0 0.0 1.6 0.00 0.00 0.00 78 1014.0
20260502034553 1 300 0.0 3.2 0.00 0.00 0.00 79 1014.1
20260502033054 1 0 0.0 6.4 0.00 0.00 0.00 80 1013.9
20260502031601 1 0 0.0 3.2 0.00 0.00 0.00 80 1013.9
20260502030059 1 0 0.0 4.8 0.00 0.00 0.00 81 1014.1
20260502024602 1 0 1.6 4.8 0.00 0.00 0.00 82 1014.0
20260502023056 1 266 0.0 4.8 0.00 0.00 0.00 82 1013.9
20260502021602 1 0 0.0 3.2 0.00 0.00 0.00 82 1013.9
20260502020053 1 0 0.0 3.2 0.00 0.00 0.00 82 1013.9
20260502014555 1 292 0.0 6.4 0.00 0.00 0.00 82 1013.9
20260502013109 1 279 1.6 4.8 0.00 0.00 0.00 81 1013.8
20260502011553 1 285 3.2 8.0 0.00 0.00 0.00 80 1013.9
20260502010109 1 304 1.6 9.7 0.00 0.00 0.00 79 1013.6
20260502004603 1 304 1.6 6.4 0.00 0.00 0.00 78 1013.5
20260502003053 2 274 0.0 8.0 0.00 0.00 0.00 76 1013.4
20260502001558 2 335 0.0 6.4 0.00 0.00 0.00 76 1013.3
20260502000056 2 37 0.0 6.4 0.00 0.00 0.00 74 1013.3
20260501234553 2 0 0.0 4.8 0.00 0.00 0.00 78 1013.2
20260501233057 3 296 0.0 9.7 0.00 0.00 0.00 77 1013.1
20260501231607 3 0 0.0 8.0 0.00 0.00 0.00 76 1013.0
20260501230101 3 317 3.2 16.1 0.00 0.00 0.00 74 1012.9
20260501224555 3 344 0.0 9.7 0.00 0.00 0.00 74 1013.0
20260501223104 3 316 4.8 14.5 0.00 0.00 0.00 70 1013.0
20260501221556 3 309 4.8 12.9 0.00 0.00 0.00 69 1012.9
20260501220059 4 310 1.6 11.3 0.00 0.00 0.00 72 1012.9
20260501214559 3 287 3.2 12.9 0.00 0.00 0.00 72 1012.9
20260501213100 3 302 4.8 19.3 0.00 0.00 0.00 73 1012.7
20260501211613 4 300 3.2 14.5 0.00 0.00 0.00 72 1012.4
20260501210052 5 285 4.8 16.1 0.00 0.00 0.00 70 1012.4
20260501204621 5 321 6.4 16.1 0.00 0.00 0.00 68 1012.1
20260501203056 5 302 4.8 14.5 0.00 0.00 0.00 69 1012.2
20260501201558 6 314 3.2 11.3 0.00 0.00 0.00 67 1012.2
20260501200055 6 296 6.4 19.3 0.00 0.00 0.00 65 1012.0
20260501194559 6 285 4.8 20.9 0.00 0.00 0.00 69 1011.9
20260501193057 6 298 6.4 16.1 0.00 0.00 0.00 67 1012.0
20260501191556 6 313 3.2 16.1 0.00 0.00 0.00 67 1011.9
20260501190055 5 320 6.4 19.3 0.00 0.00 0.00 68 1011.8
20260501184553 5 308 8.0 19.3 0.00 0.00 0.00 69 1011.7
20260501183053 6 299 8.0 22.5 0.00 0.00 0.00 66 1011.8
20260501181555 6 309 4.8 17.7 0.00 0.00 0.00 65 1011.7
20260501180104 7 229 4.8 22.5 0.00 0.00 0.00 62 1011.6
20260501174559 7 275 4.8 19.3 0.00 0.00 0.00 63 1011.7
20260501173057 6 286 6.4 20.9 0.00 0.00 0.00 64 1011.7
20260501171558 6 297 6.4 16.1 0.00 0.00 0.00 63 1011.9
20260501170054 6 297 4.8 17.7 0.00 0.00 0.00 66 1011.8
20260501164600 6 233 6.4 17.7 0.00 0.00 0.00 66 1012.0
20260501163058 6 250 8.0 17.7 0.00 0.00 0.00 63 1012.0
20260501161557 6 258 4.8 12.9 0.00 0.00 0.00 63 1012.0
20260501160106 6 245 6.4 16.1 0.00 0.00 0.00 58 1012.0
20260501154556 6 271 6.4 14.5 0.00 0.00 0.00 59 1012.1